TRITON-1

Last updated on Wed Aug 19 2026 00:03:46 GMT+0000 (Coordinated Universal Time)

1 39427U 13066M 26230.62261297 .00001409 00000+0 17239-3 0 9997 2 39427 97.8176 138.9938 0090719 31.5720 329.0892 14.81919188683336
UTC large
Height (km)
Speed (km/s)
/
Latitude / Longitude
Inclination (degrees)
Orbital Period (minutes)
Azimuth
Elevation
Range (km)
Doppler Factor

Next 0 passes for location: London (51.5072 / 0.1276)

No passes found over London.
TRITON-1